When you browse on this site, cookies collect data to enhance your experience and personalize the content and advertising you see.
Visit our Privacy Policy to learn more. By continuing to use the site, you agree to this use of cookies and data.

Hourly Weather Jutiapa

Today, 23 September, Wednesday

Time Temperature Precipitation Wind Pressure Humidity
00:00 +20°C° 0 mm 1 mps 672 mmHg 95%
01:00 +20°C° 0.5 mm 1 mps 672 mmHg 95%
02:00 +20°C° 0.5 mm 1 mps 672 mmHg 95%
03:00 +20°C° 0.5 mm 1 mps 671 mmHg 95%
04:00 +19°C° 0.1 mm 1 mps 671 mmHg 95%
05:00 +19°C° 0.1 mm 1 mps 671 mmHg 95%
06:00 +19°C° 0 mm 1 mps 672 mmHg 96%
07:00 +21°C° 0 mm 1 mps 672 mmHg 90%
08:00 +23°C° 0 mm 1 mps 673 mmHg 85%
09:00 +26°C° 0 mm 1 mps 674 mmHg 80%
10:00 +27°C° 0.3 mm 1 mps 674 mmHg 76%
11:00 +28°C° 0.3 mm 1 mps 673 mmHg 72%
12:00 +29°C° 0.3 mm 1 mps 673 mmHg 68%
13:00 +28°C° 1 mm 1 mps 673 mmHg 73%
14:00 +27°C° 1 mm 1 mps 672 mmHg 78%
15:00 +27°C° 1 mm 1 mps 671 mmHg 83%
16:00 +25°C° 0.9 mm 1 mps 671 mmHg 87%
17:00 +24°C° 0.9 mm 1 mps 671 mmHg 92%
18:00 +22°C° 0.9 mm 1 mps 671 mmHg 97%
19:00 +22°C° 0.6 mm 1 mps 672 mmHg 97%
20:00 +21°C° 0.6 mm 1 mps 672 mmHg 97%
21:00 +21°C° 0.6 mm 1 mps 673 mmHg 97%
22:00 +21°C° 0.9 mm 1 mps 672 mmHg 97%
23:00 +20°C° 0.9 mm 1 mps 672 mmHg 96%

Tomorrow, 24 September, Thursday

Time Temperature Precipitation Wind Pressure Humidity
00:00 +18°C° 0.9 mm 0 mps 672 mmHg 96%
01:00 +20°C° 0.4 mm 1 mps 672 mmHg 96%
02:00 +20°C° 0.4 mm 1 mps 671 mmHg 95%
03:00 +19°C° 0.4 mm 1 mps 671 mmHg 95%
04:00 +19°C° 0 mm 1 mps 671 mmHg 95%
05:00 +19°C° 0 mm 1 mps 671 mmHg 95%
06:00 +19°C° 0 mm 1 mps 671 mmHg 95%
07:00 +21°C° 0 mm 1 mps 672 mmHg 90%
08:00 +24°C° 0 mm 1 mps 673 mmHg 84%
09:00 +26°C° 0 mm 1 mps 674 mmHg 79%
10:00 +27°C° 0.2 mm 1 mps 674 mmHg 75%
11:00 +27°C° 0.2 mm 1 mps 674 mmHg 72%
12:00 +28°C° 0.2 mm 1 mps 674 mmHg 68%
13:00 +27°C° 0.8 mm 1 mps 673 mmHg 74%
14:00 +26°C° 0.8 mm 1 mps 672 mmHg 80%
15:00 +25°C° 0.8 mm 2 mps 671 mmHg 86%
16:00 +24°C° 0.6 mm 1 mps 671 mmHg 90%
17:00 +23°C° 0.6 mm 1 mps 671 mmHg 94%
18:00 +22°C° 0.6 mm 1 mps 671 mmHg 97%
19:00 +22°C° 0.3 mm 1 mps 672 mmHg 97%
20:00 +21°C° 0.3 mm 1 mps 672 mmHg 98%
21:00 +21°C° 0.3 mm 1 mps 673 mmHg 98%
22:00 +21°C° 0.9 mm 1 mps 673 mmHg 97%
23:00 +21°C° 0.9 mm 1 mps 673 mmHg 97%

Day after tomorrow, 25 September, Friday

Time Temperature Precipitation Wind Pressure Humidity
00:00 +21°C° 0.9 mm 1 mps 673 mmHg 96%
01:00 +19°C° 0.8 mm 0 mps 672 mmHg 96%
02:00 +18°C° 0.8 mm 0 mps 672 mmHg 96%
03:00 +18°C° 0.8 mm 0 mps 672 mmHg 96%
04:00 +18°C° 0.9 mm 0 mps 672 mmHg 97%
05:00 +18°C° 0.9 mm 0 mps 672 mmHg 97%
06:00 +20°C° 0.9 mm 1 mps 672 mmHg 98%
07:00 +19°C° 0.2 mm 0 mps 673 mmHg 97%
08:00 +19°C° 0.2 mm 0 mps 673 mmHg 96%
09:00 +20°C° 0.2 mm 0 mps 674 mmHg 95%
10:00 +21°C° 0.2 mm 0 mps 674 mmHg 91%
11:00 +24°C° 0.2 mm 1 mps 674 mmHg 88%
12:00 +24°C° 0.2 mm 1 mps 673 mmHg 85%
13:00 +25°C° 0.9 mm 1 mps 673 mmHg 84%
14:00 +25°C° 0.9 mm 1 mps 672 mmHg 84%
15:00 +26°C° 0.9 mm 1 mps 672 mmHg 83%
16:00 +24°C° 0.8 mm 1 mps 672 mmHg 88%
17:00 +21°C° 0.8 mm 0 mps 672 mmHg 92%
18:00 +20°C° 0.8 mm 0 mps 672 mmHg 97%
19:00 +20°C° 0.3 mm 0 mps 672 mmHg 96%
20:00 +21°C° 0.3 mm 1 mps 673 mmHg 95%
21:00 +21°C° 0.3 mm 1 mps 673 mmHg 94%
22:00 +21°C° 0.3 mm 1 mps 673 mmHg 95%
23:00 +21°C° 0.3 mm 1 mps 673 mmHg 95%

26 September, Saturday

Time Temperature Precipitation Wind Pressure Humidity
00:00 +21°C° 0.3 mm 1 mps 673 mmHg 95%
01:00 +20°C° 0.1 mm 1 mps 673 mmHg 95%
02:00 +20°C° 0.1 mm 1 mps 672 mmHg 95%
03:00 +20°C° 0.1 mm 1 mps 672 mmHg 95%
04:00 +20°C° 0 mm 1 mps 672 mmHg 95%
05:00 +20°C° 0 mm 1 mps 672 mmHg 95%
06:00 +20°C° 0 mm 1 mps 672 mmHg 94%
07:00 +21°C° 0 mm 1 mps 673 mmHg 90%
08:00 +23°C° 0 mm 1 mps 673 mmHg 86%
09:00 +25°C° 0 mm 1 mps 674 mmHg 82%
10:00 +25°C° 0.4 mm 1 mps 674 mmHg 81%
11:00 +26°C° 0.4 mm 1 mps 674 mmHg 80%
12:00 +27°C° 0.4 mm 1 mps 674 mmHg 79%
13:00 +26°C° 0.7 mm 1 mps 673 mmHg 80%
14:00 +26°C° 0.7 mm 1 mps 672 mmHg 82%
15:00 +26°C° 0.7 mm 1 mps 671 mmHg 83%
16:00 +25°C° 0.4 mm 1 mps 671 mmHg 87%
17:00 +23°C° 0.4 mm 1 mps 671 mmHg 91%
18:00 +22°C° 0.4 mm 1 mps 671 mmHg 96%
19:00 +22°C° 0.5 mm 1 mps 671 mmHg 96%
20:00 +22°C° 0.5 mm 1 mps 672 mmHg 97%
21:00 +21°C° 0.5 mm 1 mps 672 mmHg 98%
22:00 +21°C° 0.8 mm 1 mps 672 mmHg 97%
23:00 +21°C° 0.8 mm 1 mps 672 mmHg 96%

27 September, Sunday

Time Temperature Precipitation Wind Pressure Humidity
00:00 +19°C° 0.8 mm 0 mps 672 mmHg 95%
01:00 +21°C° 0 mm 1 mps 672 mmHg 94%
02:00 +21°C° 0 mm 1 mps 671 mmHg 94%
03:00 +21°C° 0 mm 1 mps 671 mmHg 93%
04:00 +20°C° 0 mm 1 mps 671 mmHg 93%
05:00 +20°C° 0 mm 1 mps 671 mmHg 93%
06:00 +19°C° 0 mm 1 mps 671 mmHg 93%
07:00 +22°C° 0 mm 1 mps 672 mmHg 87%
08:00 +24°C° 0 mm 1 mps 673 mmHg 82%
09:00 +26°C° 0 mm 1 mps 674 mmHg 76%
10:00 +27°C° 0.4 mm 1 mps 673 mmHg 73%
11:00 +27°C° 0.4 mm 1 mps 673 mmHg 70%
12:00 +28°C° 0.4 mm 1 mps 673 mmHg 66%
13:00 +28°C° 0.7 mm 1 mps 672 mmHg 70%
14:00 +27°C° 0.7 mm 1 mps 671 mmHg 73%
15:00 +27°C° 0.7 mm 1 mps 671 mmHg 77%
16:00 +25°C° 0.9 mm 1 mps 671 mmHg 83%
17:00 +23°C° 0.9 mm 1 mps 670 mmHg 89%
18:00 +22°C° 0.9 mm 1 mps 670 mmHg 95%
19:00 +21°C° 0.5 mm 1 mps 671 mmHg 94%
20:00 +21°C° 0.5 mm 1 mps 671 mmHg 93%
21:00 +20°C° 0.5 mm 1 mps 672 mmHg 92%
22:00 +20°C° 0 mm 1 mps 671 mmHg 92%
23:00 +20°C° 0 mm 1 mps 671 mmHg 91%

28 September, Monday

Time Temperature Precipitation Wind Pressure Humidity
00:00 +19°C° 0 mm 1 mps 671 mmHg 90%
01:00 +19°C° 0 mm 1 mps 670 mmHg 90%
02:00 +19°C° 0 mm 1 mps 670 mmHg 90%
03:00 +19°C° 0 mm 1 mps 670 mmHg 90%
04:00 +19°C° 0 mm 1 mps 670 mmHg 90%
05:00 +19°C° 0 mm 1 mps 670 mmHg 90%
06:00 +18°C° 0 mm 1 mps 670 mmHg 90%
07:00 +21°C° 0 mm 1 mps 671 mmHg 85%
08:00 +23°C° 0 mm 1 mps 672 mmHg 80%
09:00 +26°C° 0 mm 1 mps 672 mmHg 75%
10:00 +26°C° 0.6 mm 1 mps 672 mmHg 74%
11:00 +27°C° 0.6 mm 1 mps 672 mmHg 73%
12:00 +28°C° 0.6 mm 1 mps 672 mmHg 72%
13:00 +27°C° 1.1 mm 1 mps 671 mmHg 75%
14:00 +27°C° 1.1 mm 1 mps 671 mmHg 78%
15:00 +26°C° 1.1 mm 1 mps 670 mmHg 81%
16:00 +25°C° 0.7 mm 1 mps 670 mmHg 86%
17:00 +23°C° 0.7 mm 1 mps 670 mmHg 91%
18:00 +20°C° 0.7 mm 0 mps 670 mmHg 96%
19:00 +21°C° 0.9 mm 1 mps 670 mmHg 95%
20:00 +21°C° 0.9 mm 1 mps 671 mmHg 93%
21:00 +21°C° 0.9 mm 1 mps 671 mmHg 92%
22:00 +20°C° 1 mm 1 mps 671 mmHg 92%
23:00 +20°C° 1 mm 1 mps 671 mmHg 93%
Show more